Tracking 18951 objects as of 21-Jan-2018
HD Live streaming from Space Station
objects crossing your sky now

FENGYUN 1C DEB

Track FENGYUN 1C DEB now!
10-day predictions


NORAD ID: 31284
Int'l Code: 1999-025BNS
Perigee: 815.5 km
Apogee: 1,034.6 km
Inclination: 99.7 °
Period: 103.4 minutes
Semi major axis: 7296 km
RCS: 0.0158 m2 (small)
Launch date: May 10, 1999
Source: People's Republic of China (PRC)
Launch site: Taiyaun Space Center, China (TSC)

Note: This is SATELLITE DEBRIS
aabbcc
Your satellite tracking list
Your tracking list is empty




NASA's NSSDC Master Catalog

Two Line Element Set (TLE):
1 31284U 99025BNS 18020.94651800  .00000043  00000-0  64664-4 0  9994
2 31284  99.7341 275.3876 0150135 203.3327 216.1734 13.93059306551392
Source of the keplerian elements: AFSPC